Wind_Speed
23 23 24 24 25 25 24 23 23 23 24 25 25 26 26 26 26 26 25 24 24 24 23 23 23 24 24 24 24 24 24 23 23 23 22 21 21 20 19 19 18 17 15 14 13 12 11 10 10
24 25 26 26 27 26 25 25 26 26 26 27 28 29 29 29 29 29 28 27 27 27 26 26 26 26 26 26 26 26 26 25 25 25 24 24 23 22 22 21 20 19 18 16 15 14 13 13 12
25 26 27 28 28 28 28 28 28 28 29 29 30 31 31 31 31 31 30 30 30 30 29 29 29 29 28 28 28 28 28 28 28 27 27 26 25 24 24 23 22 21 20 19 18 16 15 14 14
26 27 28 29 29 29 30 30 30 31 31 31 32 33 33 33 34 34 33 33 33 33 32 32 32 32 31 31 31 31 31 31 30 30 29 29 28 27 26 25 24 23 22 21 21 19 18 16 16
28 29 29 29 30 30 31 32 32 33 33 33 34 35 35 36 36 36 36 36 35 36 36 35 35 35 35 34 34 33 33 33 33 32 31 31 31 29 28 27 26 25 24 24 23 22 20 19 18
28 29 30 31 31 32 33 34 34 35 35 36 37 37 37 38 39 39 39 39 38 38 38 38 38 38 38 37 36 36 36 35 36 35 35 34 33 32 31 29 28 27 26 26 25 24 23 22 20
29 30 30 31 32 33 34 35 36 37 37 38 39 40 40 41 42 42 42 42 42 41 41 41 41 41 41 40 39 39 39 38 38 38 37 37 36 35 34 32 31 30 28 27 26 26 25 24 22
29 30 31 31 32 34 35 36 37 38 39 41 42 43 43 43 44 45 46 46 45 45 45 45 44 44 44 44 43 42 42 41 41 40 40 40 39 39 37 36 34 33 31 30 28 28 27 26 25
28 30 30 32 33 35 37 38 39 40 42 43 44 45 46 46 47 47 48 48 48 48 48 48 48 48 48 47 47 46 45 45 44 44 43 43 42 41 40 39 37 36 34 32 31 30 29 28 27
27 29 31 32 34 36 37 39 40 41 43 43 44 45 46 47 48 49 50 51 51 51 51 52 51 51 51 51 50 49 49 48 48 47 46 46 45 44 43 42 41 39 37 36 34 33 32 31 30
27 29 30 32 34 36 37 38 40 42 42 43 43 45 46 48 49 50 52 52 53 53 54 54 55 55 54 54 54 53 52 51 51 51 50 49 48 47 46 45 44 42 40 38 37 36 34 33 32
27 29 30 32 34 36 37 38 40 41 42 43 44 46 47 49 50 52 52 52 53 54 55 57 57 58 58 58 57 57 56 55 54 54 53 52 51 50 49 48 47 45 43 42 40 39 37 36 35
28 29 31 33 35 36 37 38 40 41 43 44 45 46 47 48 50 52 53 54 54 55 56 58 59 60 61 61 61 60 59 58 58 57 56 55 55 54 52 51 50 48 46 45 43 41 40 39 38
28 30 32 34 36 37 38 38 41 42 43 43 44 45 47 48 49 50 52 54 54 56 57 58 60 61 63 63 63 63 62 61 61 60 59 59 57 57 56 54 53 51 50 47 46 44 42 41 40
30 31 33 35 37 37 38 38 41 41 42 43 44 45 46 48 49 50 52 53 54 56 57 58 60 61 63 64 65 65 65 64 64 63 62 60 59 59 57 57 55 53 52 51 49 47 45 44 43
31 32 34 36 37 38 38 37 40 41 42 43 44 45 46 48 49 50 51 52 54 56 57 58 59 61 63 64 65 66 66 65 65 65 64 62 61 60 60 59 58 56 55 54 52 50 47 46 45
31 33 34 36 38 38 38 37 39 41 42 42 43 44 45 46 48 50 51 51 52 54 56 57 57 59 61 62 64 65 65 65 65 65 65 64 63 62 61 61 60 59 58 56 55 53 50 48 46
33 34 35 36 38 39 38 37 38 40 42 43 44 44 44 44 46 47 49 49 50 51 52 53 54 56 57 59 62 65 64 63 63 64 65 66 66 65 63 63 63 62 60 59 57 55 53 51 49
34 35 36 37 40 40 39 38 38 39 41 42 43 43 42 42 44 45 45 45 47 47 48 50 51 53 54 56 58 61 63 62 62 62 63 66 67 66 65 64 64 64 63 61 60 58 56 53 51
36 36 37 38 40 41 40 39 38 39 40 42 42 42 42 42 42 43 43 43 43 44 45 48 48 49 51 52 54 57 61 62 61 62 62 64 67 67 66 65 66 65 64 63 61 61 58 55 54
37 38 39 40 40 41 41 39 38 39 40 42 42 42 42 43 42 41 41 41 41 42 44 46 47 47 47 49 52 55 58 60 61 61 61 62 65 65 66 66 65 65 64 64 63 62 61 57 56
37 38 40 40 41 41 41 41 38 39 40 41 43 42 42 42 42 40 40 39 40 42 43 43 45 45 45 48 49 52 54 57 58 58 60 60 62 63 64 67 66 65 64 65 65 63 62 59 57
38 39 40 40 41 41 41 42 40 40 40 41 42 41 41 42 41 40 40 40 40 41 42 42 42 44 44 46 47 50 53 55 56 57 59 60 60 61 63 65 65 64 64 65 66 64 63 61 58
38 39 41 41 42 42 42 43 41 41 41 41 42 41 41 40 41 39 39 40 40 41 41 40 41 43 44 45 45 47 48 51 53 55 57 59 60 60 61 63 65 64 63 65 66 65 62 60 59
39 40 42 44 43 43 43 43 42 42 41 41 41 42 41 40 40 40 40 41 42 42 41 40 40 41 42 44 44 45 46 47 49 51 55 58 59 61 61 61 62 62 61 62 64 63 61 61 59
39 40 41 44 45 45 44 44 43 42 41 42 42 42 42 42 42 42 42 42 42 42 40 39 38 39 41 41 43 43 43 44 46 50 51 54 57 59 60 60 59 61 61 59 61 61 60 61 59
39 40 41 43 46 46 46 46 43 42 42 42 42 42 43 43 43 43 43 42 41 41 40 39 37 38 40 40 42 43 43 43 45 49 51 52 55 57 58 59 56 59 58 57 59 60 59 60 58
40 41 42 43 46 48 48 47 45 44 43 42 42 42 43 43 43 42 42 41 41 40 38 37 37 37 38 39 41 43 42 41 43 46 49 51 52 55 57 57 57 58 59 57 58 57 58 60 58
40 41 42 44 45 48 50 48 45 44 44 44 43 42 43 43 43 42 42 42 41 39 37 36 36 36 36 37 38 40 41 41 42 43 45 47 49 52 55 55 56 56 55 54 57 57 57 58 55
42 42 42 44 46 48 50 49 45 45 44 44 44 43 43 43 42 41 41 40 40 38 37 36 34 34 34 34 36 37 38 39 39 40 42 43 45 49 52 53 55 55 53 52 54 54 54 55 52
Wind_Direction
263 264 264 265 265 266 268 269 267 265 264 264 263 262 261 261 261 261 260 258 257 255 253 253 252 251 251 251 250 248 247 245 244 243 243 242 242 241 241 243 245 248 250 253 256 260 262 263 265
264 264 265 265 267 268 269 269 268 267 266 264 263 262 262 261 260 260 260 258 256 255 254 253 252 252 252 251 250 249 249 248 246 245 245 244 244 243 243 244 245 247 248 250 253 256 258 260 263
265 265 266 267 268 270 271 270 269 268 266 265 264 263 263 262 261 260 259 257 256 254 253 253 252 252 252 251 250 249 249 249 248 247 246 246 245 245 245 245 246 247 247 249 251 253 256 258 260
266 266 267 268 269 270 271 271 270 269 267 266 265 264 263 263 262 260 259 257 256 254 253 252 252 252 252 251 251 250 250 249 249 249 249 249 247 246 246 247 247 247 249 250 251 252 254 256 258
267 267 268 269 270 271 272 272 272 270 269 268 266 265 264 263 262 261 260 258 256 255 254 253 253 252 252 252 251 251 250 250 249 249 248 249 249 248 247 247 248 248 249 250 251 252 254 254 256
267 267 268 270 271 271 272 272 272 271 270 269 268 267 266 265 263 262 260 259 258 256 255 254 253 252 252 252 252 252 251 250 250 250 249 249 249 249 248 248 248 249 250 250 251 252 253 254 255
268 268 269 271 272 272 272 272 272 272 271 270 269 268 267 266 265 263 262 260 259 257 256 255 254 253 252 251 251 252 251 251 250 250 249 248 248 249 249 249 249 249 250 251 251 251 252 254 254
271 272 272 273 274 274 274 274 274 273 272 272 271 269 267 265 265 264 263 261 260 258 257 255 254 254 252 252 251 251 251 250 250 249 249 248 248 248 248 249 249 250 250 251 251 251 251 252 253
274 276 276 276 277 277 276 276 275 275 274 274 272 271 269 267 265 264 263 261 260 259 257 256 255 254 253 252 251 251 250 250 250 249 249 248 248 248 249 249 249 249 250 251 251 251 252 252 252
278 280 279 280 280 280 279 278 277 276 276 275 273 272 271 268 266 264 262 261 260 259 258 257 256 255 253 252 251 250 250 250 249 249 249 248 248 248 248 249 249 249 250 251 251 251 251 252 253
281 283 284 285 285 284 283 281 279 278 276 275 274 272 272 270 268 265 263 261 260 258 257 257 256 255 254 253 252 251 250 250 249 249 248 248 248 247 247 248 248 249 249 250 251 251 252 252 253
286 287 289 290 289 288 286 284 281 280 278 277 276 274 272 271 269 267 265 262 260 259 258 257 256 256 255 254 253 252 250 249 249 248 248 247 247 247 247 247 247 248 249 249 250 250 251 252 253
290 292 293 293 293 292 290 287 284 282 281 280 279 277 275 274 272 270 267 264 262 260 258 257 256 256 255 254 253 251 250 249 248 247 247 247 246 246 246 247 247 247 247 248 249 250 250 251 252
294 294 295 295 296 295 293 290 288 287 285 283 281 280 278 276 274 273 270 267 263 261 259 258 257 256 255 254 252 251 250 248 247 246 245 245 245 245 245 245 246 246 246 247 248 248 249 250 251
296 296 297 298 298 298 295 293 292 291 289 287 284 283 282 279 276 276 273 270 266 263 260 259 258 256 254 253 251 250 249 247 246 245 244 244 244 243 243 244 244 245 245 245 246 247 248 248 250
298 299 300 300 301 301 298 298 295 293 292 290 288 286 286 282 280 278 277 272 269 265 263 260 259 256 255 253 251 249 248 246 244 244 243 243 243 242 242 243 243 243 243 244 244 245 246 247 248
300 301 302 302 303 303 301 301 298 296 295 294 292 290 289 287 285 283 280 275 272 268 264 261 259 257 255 253 251 248 246 245 244 243 243 242 241 241 241 241 241 241 242 243 243 243 244 245 247
302 303 304 305 305 305 304 304 302 299 299 298 297 294 292 291 290 287 284 279 276 270 266 262 260 258 255 253 250 247 245 244 243 243 242 241 241 241 240 239 240 239 240 240 241 241 242 242 245
304 305 307 307 307 307 306 306 303 301 301 301 300 297 294 294 292 289 287 282 278 272 267 264 262 258 255 253 251 247 245 244 243 242 242 241 240 240 238 238 238 237 237 238 239 240 240 240 242
306 307 308 308 308 308 307 307 306 304 303 303 301 300 297 296 293 291 289 286 281 275 270 267 265 261 257 254 251 248 245 245 243 242 242 241 239 238 237 237 237 236 235 236 237 239 238 238 240
307 308 309 309 309 309 308 308 309 308 306 304 302 300 298 296 294 293 291 286 282 278 274 270 267 264 259 256 253 249 246 246 244 242 242 241 238 237 235 234 235 235 235 235 236 237 237 237 239
307 307 309 309 311 312 311 310 311 310 309 307 303 301 298 296 294 292 291 287 285 282 278 274 269 265 261 258 254 251 248 246 244 242 241 240 237 235 234 233 234 234 235 234 234 235 236 236 237
307 308 309 310 311 312 313 312 314 312 313 310 305 302 299 297 295 293 292 290 289 286 281 276 270 265 263 261 257 253 250 246 245 242 240 238 236 235 234 234 234 235 236 235 233 234 234 234 236
306 307 308 310 311 312 313 313 315 314 315 312 307 304 300 298 296 296 293 292 291 288 284 279 273 268 265 262 257 253 250 245 244 242 240 237 235 234 233 234 234 234 235 234 233 233 233 234 236
306 308 310 311 312 313 314 313 316 315 314 313 310 307 303 300 297 297 295 294 292 290 286 281 277 272 267 262 257 255 252 247 244 242 239 236 235 234 233 233 233 233 234 233 233 232 232 233 234
305 307 309 310 311 312 312 313 316 315 313 311 310 309 306 303 299 297 296 296 294 291 288 284 278 273 267 261 258 255 251 246 244 243 239 236 234 234 233 233 233 233 232 233 233 232 232 232 232
305 307 308 308 310 311 312 312 313 314 312 311 309 307 306 305 301 298 299 298 297 294 289 284 279 274 268 263 260 254 250 246 244 241 239 236 234 234 233 232 232 232 231 232 231 231 230 231 231
304 306 307 309 310 311 311 313 314 313 312 310 308 306 305 305 302 300 300 300 299 296 290 285 280 276 271 263 259 254 248 245 243 241 240 237 235 234 233 231 229 231 230 231 231 229 228 229 229
304 305 307 307 308 309 310 312 314 312 312 311 309 308 307 305 302 302 301 300 299 296 292 288 282 277 271 264 259 253 248 245 243 241 239 237 236 234 232 230 228 229 230 231 230 229 227 226 226
302 304 305 306 307 307 308 311 313 311 310 310 309 309 307 305 303 303 302 300 299 295 291 289 283 278 273 267 260 254 248 244 242 238 237 236 234 233 230 228 228 227 228 229 228 225 224 224 225
Height
5807 5808 5809 5809 5810 5811 5812 5813 5814 5815 5815 5816 5816 5817 5818 5820 5821 5824 5824 5824 5825 5827 5828 5829 5830 5832 5833 5835 5836 5838 5840 5841 5843 5844 5846 5847 5848 5850 5851 5853 5854 5855 5856 5857 5859 5859 5860 5861 5861
5802 5803 5804 5805 5805 5806 5808 5808 5809 5809 5810 5810 5810 5811 5812 5813 5815 5816 5818 5819 5820 5822 5823 5824 5826 5827 5828 5830 5832 5833 5835 5837 5838 5840 5841 5843 5844 5846 5847 5849 5851 5852 5853 5854 5856 5857 5858 5859 5859
5798 5798 5799 5799 5800 5801 5802 5803 5803 5803 5804 5804 5804 5805 5806 5807 5808 5810 5811 5813 5814 5816 5817 5819 5820 5822 5823 5825 5826 5828 5830 5832 5833 5835 5837 5838 5840 5842 5843 5845 5847 5848 5850 5851 5852 5854 5855 5856 5856
5793 5794 5794 5795 5795 5796 5795 5796 5796 5796 5797 5797 5797 5798 5799 5801 5801 5803 5804 5806 5808 5809 5811 5813 5814 5816 5817 5819 5821 5823 5824 5826 5828 5830 5832 5834 5835 5837 5839 5840 5842 5844 5846 5848 5849 5850 5851 5853 5853
5787 5788 5788 5788 5789 5789 5789 5789 5789 5789 5789 5790 5790 5791 5792 5793 5793 5795 5796 5798 5800 5802 5804 5806 5807 5809 5811 5812 5814 5816 5818 5820 5822 5824 5826 5828 5830 5832 5834 5836 5838 5840 5842 5843 5845 5846 5848 5849 5850
5781 5781 5782 5782 5783 5782 5782 5782 5782 5781 5782 5782 5782 5783 5784 5784 5785 5786 5787 5789 5791 5794 5796 5798 5800 5802 5803 5805 5807 5809 5811 5813 5816 5818 5820 5822 5824 5826 5828 5830 5833 5835 5837 5839 5840 5842 5844 5845 5846
5776 5775 5775 5776 5775 5775 5775 5774 5774 5773 5773 5774 5773 5773 5775 5775 5775 5776 5778 5780 5782 5784 5786 5789 5791 5793 5795 5797 5799 5802 5804 5806 5808 5811 5813 5815 5817 5820 5822 5825 5827 5829 5831 5833 5835 5837 5839 5841 5842
5768 5769 5769 5768 5768 5768 5767 5766 5765 5764 5764 5764 5763 5763 5765 5765 5765 5766 5767 5769 5771 5774 5776 5779 5781 5784 5786 5788 5791 5793 5795 5798 5800 5803 5805 5808 5810 5812 5815 5818 5821 5823 5826 5828 5830 5832 5833 5835 5837
5762 5763 5762 5761 5760 5760 5759 5757 5756 5755 5754 5753 5752 5752 5753 5753 5753 5754 5755 5757 5759 5762 5764 5767 5770 5773 5775 5778 5780 5783 5786 5789 5791 5794 5797 5799 5802 5805 5808 5811 5814 5817 5819 5821 5824 5826 5828 5830 5832
5756 5756 5755 5754 5752 5751 5749 5747 5746 5745 5743 5742 5741 5740 5740 5740 5741 5742 5743 5744 5746 5749 5751 5754 5757 5760 5763 5766 5769 5772 5775 5778 5781 5784 5787 5791 5794 5797 5799 5803 5806 5809 5812 5815 5817 5819 5821 5823 5826
5749 5748 5747 5745 5743 5740 5738 5736 5734 5733 5732 5731 5730 5729 5728 5727 5727 5728 5730 5731 5733 5736 5738 5740 5743 5746 5750 5753 5757 5760 5763 5767 5770 5774 5777 5781 5784 5787 5790 5794 5797 5801 5804 5807 5810 5812 5815 5817 5819
5743 5741 5739 5737 5734 5731 5728 5726 5724 5722 5721 5719 5718 5717 5715 5714 5714 5714 5715 5717 5719 5721 5723 5725 5728 5731 5734 5738 5742 5746 5750 5754 5758 5762 5766 5769 5773 5777 5781 5785 5788 5792 5795 5799 5802 5805 5807 5810 5813
5736 5734 5731 5728 5725 5722 5719 5716 5713 5711 5709 5706 5705 5703 5702 5701 5700 5699 5699 5701 5703 5705 5707 5709 5712 5715 5718 5721 5726 5730 5735 5739 5744 5748 5752 5757 5762 5766 5770 5774 5778 5782 5786 5790 5793 5796 5799 5802 5805
5729 5727 5724 5720 5717 5713 5710 5706 5702 5700 5697 5694 5692 5690 5688 5686 5686 5685 5684 5685 5686 5688 5690 5692 5694 5697 5700 5704 5708 5713 5718 5723 5728 5733 5739 5743 5749 5754 5758 5763 5767 5772 5776 5780 5784 5787 5791 5794 5797
5722 5720 5716 5712 5708 5705 5702 5698 5692 5689 5685 5682 5680 5677 5675 5672 5671 5670 5669 5668 5669 5670 5672 5674 5676 5679 5682 5686 5690 5694 5699 5705 5711 5717 5723 5729 5734 5740 5745 5750 5756 5760 5765 5769 5773 5778 5781 5785 5788
5715 5712 5709 5705 5700 5696 5693 5690 5684 5678 5675 5672 5668 5665 5662 5659 5656 5655 5653 5652 5651 5652 5654 5656 5657 5659 5662 5666 5670 5674 5680 5686 5693 5700 5706 5713 5719 5725 5731 5737 5743 5748 5753 5758 5762 5767 5772 5776 5779
5708 5705 5701 5697 5692 5687 5683 5680 5675 5668 5664 5661 5657 5653 5650 5646 5643 5640 5637 5636 5635 5634 5635 5637 5639 5641 5643 5647 5651 5655 5660 5667 5674 5682 5689 5696 5702 5709 5716 5722 5729 5735 5740 5745 5751 5756 5761 5765 5769
5701 5697 5693 5688 5684 5679 5674 5670 5666 5660 5655 5651 5646 5642 5638 5634 5631 5627 5624 5621 5619 5619 5619 5619 5621 5623 5625 5628 5632 5636 5642 5649 5656 5663 5671 5678 5685 5692 5699 5706 5713 5719 5726 5732 5738 5744 5749 5754 5759
5692 5689 5684 5680 5674 5670 5666 5661 5657 5652 5646 5642 5637 5632 5627 5623 5619 5615 5611 5608 5606 5604 5604 5604 5604 5606 5608 5611 5614 5619 5625 5631 5638 5645 5653 5660 5667 5674 5682 5690 5697 5703 5710 5717 5724 5731 5736 5742 5747
5684 5680 5676 5672 5666 5661 5657 5653 5648 5643 5637 5632 5627 5622 5617 5613 5609 5604 5600 5596 5593 5591 5590 5589 5590 5591 5592 5595 5598 5603 5608 5615 5621 5628 5635 5642 5649 5656 5664 5672 5681 5688 5694 5702 5710 5717 5723 5730 5736
5676 5672 5667 5663 5658 5653 5648 5645 5640 5634 5628 5622 5617 5611 5606 5601 5597 5594 5590 5586 5583 5581 5578 5577 5576 5577 5578 5581 5584 5587 5592 5597 5604 5611 5617 5624 5631 5639 5647 5655 5663 5672 5679 5687 5696 5703 5710 5718 5724
5669 5664 5659 5654 5649 5644 5639 5634 5633 5626 5619 5612 5607 5601 5596 5592 5587 5584 5580 5577 5574 5571 5567 5565 5564 5564 5566 5567 5569 5572 5576 5582 5588 5595 5601 5607 5614 5622 5630 5639 5647 5655 5663 5672 5680 5688 5697 5704 5710
5660 5655 5651 5646 5640 5636 5631 5625 5624 5617 5611 5604 5597 5592 5586 5582 5578 5574 5570 5567 5564 5560 5557 5554 5552 5552 5553 5554 5555 5558 5562 5567 5572 5578 5584 5591 5598 5605 5614 5622 5630 5639 5647 5655 5663 5673 5681 5689 5697
5652 5647 5643 5638 5632 5628 5623 5617 5613 5607 5601 5595 5589 5583 5578 5573 5569 5564 5560 5557 5553 5549 5546 5543 5542 5541 5541 5541 5543 5545 5548 5552 5557 5562 5568 5575 5583 5591 5599 5607 5615 5624 5632 5640 5649 5658 5667 5676 5684
5644 5639 5634 5628 5623 5620 5614 5608 5606 5599 5593 5586 5580 5575 5570 5565 5560 5555 5551 5547 5543 5539 5535 5532 5530 5530 5530 5530 5531 5533 5535 5538 5543 5548 5554 5561 5568 5576 5585 5592 5600 5609 5618 5626 5634 5643 5652 5662 5670
5636 5631 5626 5620 5614 5611 5606 5601 5599 5592 5585 5578 5572 5566 5561 5556 5551 5546 5541 5537 5532 5528 5525 5522 5520 5519 5519 5519 5520 5522 5523 5526 5530 5535 5540 5547 5554 5563 5571 5579 5587 5595 5604 5612 5620 5629 5639 5648 5656
5628 5623 5619 5612 5605 5601 5597 5593 5591 5585 5578 5571 5565 5559 5553 5548 5542 5537 5532 5528 5523 5518 5514 5511 5509 5508 5508 5508 5509 5510 5512 5514 5518 5522 5527 5533 5541 5549 5557 5565 5573 5582 5590 5599 5607 5615 5625 5634 5643
5620 5615 5610 5603 5596 5590 5587 5584 5582 5575 5569 5563 5557 5551 5545 5540 5534 5528 5524 5519 5514 5509 5504 5501 5499 5498 5497 5497 5497 5499 5501 5503 5507 5511 5516 5521 5528 5535 5543 5551 5560 5569 5578 5586 5594 5603 5612 5622 5631
5612 5607 5600 5594 5588 5581 5575 5578 5573 5566 5559 5553 5548 5542 5536 5530 5525 5520 5515 5510 5505 5499 5495 5492 5490 5488 5487 5487 5488 5488 5491 5493 5496 5500 5505 5510 5516 5523 5530 5539 5548 5556 5566 5573 5582 5591 5600 5610 5619
5602 5598 5593 5587 5581 5573 5565 5568 5565 5558 5550 5543 5538 5533 5526 5521 5516 5511 5506 5501 5496 5491 5487 5485 5482 5480 5478 5478 5479 5480 5481 5484 5486 5491 5495 5501 5507 5513 5520 5528 5537 5546 5555 5563 5571 5580 5589 5599 5609